Miscellaneous Local Product
Issued by NWS North Platte, NE

Home | Current Version | Previous Version | Text Only | Print | Product List | Glossary On
Versions: 1 2 3 4 5 6 7 8 9 10 11 12 13 14 15 16 17 18 19 20 21 22 23 24 25 26 27 28 29 30 31 32 33 34 35 36 37 38 39 40 41 42 43 44 45 46 47 48 49 50
000
AXUS43 KLBF 300910
MISLBF


WESTERN AND NORTH CENTRAL NEBRASKA HOURLY WEATHER ROUNDUP
NATIONAL WEATHER SERVICE NORTH PLATTE NE
400 AM CDT MON MAY 30 2016

NOTE: "FAIR" INDICATES FEW OR NO CLOUDS BELOW 12,000 FEET WITH NO
SIGNIFICANT WEATHER AND/OR OBSTRUCTIONS TO VISIBILITY.

NOTE: STATIONS NOT REPORTING VARIABLES SUCH AS SKY/WEATHER OR
PRESSURE ARE PROVIDED BY RAWS AND APRS NETWORKS AND ARE NOT UNDER
NATIONAL WEATHER SERVICE QUALITY CONTROL.

...OBSERVATIONS IN AND NEAR THE EASTERN PANHANDLE OF NEBRASKA...

CITY           SKY/WX    TMP DP  RH WIND       PRES   REMARKS
PINE RIDGE     CLOUDY    60  51  72 S14       29.96S
CHADRON        CLOUDY    57  48  72 S7        29.95F
ALLIANCE       CLOUDY    56  50  80 S12       30.00F
SIDNEY         CLOUDY    55  49  80 S14       30.05F
CRESCENT LAKE    N/A     58  50  76 S6G16       N/A
BIG SPRINGS      N/A     60  52  76 S15         N/A
$$

...OBSERVATIONS IN NORTHERN NEBRASKA AND FAR SOUTHERN SOUTH DAKOTA...

CITY           SKY/WX    TMP DP  RH WIND       PRES   REMARKS
WINNER         FAIR      62  57  83 SE16G24   29.96R
VALENTINE      CLOUDY    57  52  83 NW5       29.95F
THEDFORD       CLOUDY    58  52  78 CALM      29.98R
AINSWORTH      CLOUDY    59  52  77 SE3       29.97R
O`NEILL        CLOUDY    64  57  78 SE5       30.00R
ORD            CLOUDY    63  52  67 SE6       29.97R
BROKEN BOW     CLOUDY    60  53  77 SW3       29.98F
BUTTE            N/A     59  56  88 E7          N/A
CHAMBERS         N/A     60  56  88 CALM        N/A
EWING            N/A     63  57  81 CALM        N/A
$$

...OBSERVATIONS IN SOUTHWEST NEBRASKA AND FAR NORTHEAST COLORADO...

CITY           SKY/WX    TMP DP  RH WIND       PRES   REMARKS
HOLYOKE        FAIR      59  52  77 S9        30.04F
IMPERIAL       PTCLDY    59  51  75 SW10      30.02S
OGALLALA       CLOUDY    62  49  62 SW13G20   29.99F
NORTH PLATTE   CLOUDY    60  51  72 CALM      29.97F
MCCOOK         PTCLDY    60  52  74 S10       29.96F
LEXINGTON      CLOUDY    59  51  75 S7        29.98F
PAXTON           N/A     61  55  79 SW9         N/A
STAPLETON        N/A     58  53  82 CALM        N/A
GOTHENBURG       N/A     61  50  67 CALM        N/A
CALLAWAY         N/A     57  53  87 S7          N/A
$$

...OBSERVATIONS IN CENTRAL LINCOLN COUNTY AREA...

CITY           SKY/WX    TMP DP  RH WIND       PRES   REMARKS
N.P. AIRPORT   CLOUDY    60  51  72 CALM      29.97F
N.P. DOWNTOWN    N/A     62  51  68 CALM        N/A
N.P. HILLCREST   N/A     61  52  71 CALM        N/A
$$

...SOME OBSERVATIONS FROM AROUND THE REGION...

CITY           SKY/WX    TMP DP  RH WIND       PRES   REMARKS
DENVER         PTCLDY    48  41  76 S6        30.09F
LARAMIE        CLOUDY    40  36  86 S9        30.15F WCI  34
CHEYENNE       CLOUDY    48  39  71 W9        30.09F
SCOTTSBLUFF    CLOUDY    55  50  83 E10       30.02S
RAPID CITY     CLOUDY    51  49  92 VRB3      29.94S
BISMARCK       CLEAR     53  51  93 E3        29.92F
PIERRE         CLOUDY    60  55  83 SE13G22   29.91F
SIOUX FALLS    CLOUDY    63  53  70 S5        30.02R
OMAHA          CLOUDY    68  60  75 SE6       29.98F
GRAND ISLAND   PTCLDY    62  52  69 W5        29.97F
KANSAS CITY    CLOUDY    64  60  87 S6        30.02S
WICHITA        MOCLDY    66  61  84 CALM      30.02R
OKLAHOMA CITY  RAIN      65  63  93 S9        30.05R FOG
DALLAS         TSTM      70  65  84 SW18G26   30.04R
AMARILLO       CLOUDY    52  49  89 W8        30.09R
DODGE CITY     CLOUDY    58  51  78 SW9       30.06F
HAYS           CLOUDY    59  50  72 SW9       30.03S
GOODLAND       PTCLDY    57  50  77 S13       30.05F
$$




USA.gov is the U.S. government's official web portal to all federal, state and local government web resources and services.